SCP
0 0 0 0 0 0 0 0 0 0 0 0 0 0 0 0 0 0 0 0 0 0 0 0 0 0 0 0 0 0 0 0 0 0 0 0 0 0 0 0 0 0 0 0 0 0 0 0 0 0 0 0 0 0
0 0 0 0 0 0 0 0 0 0 0 0 0 0 0 0 0 0 0 0 0 0 0 0 0 0 0 0 0 0 0 0 0 0 0 0 0 0 0 0 0 0 0 0 0 0 0 0 0 0 0 0 0 0
0 0 0 0 0 0 0 0 0 0 0 0 0 0 0 0 0 0 0 0 0 0 0 0 0 0 0 0 0 0 0 0 0 0 0 0 0 0 0 0 0 0 0 0 0 0 0 0 0 0 0 0 0 0
0 0 0 0 0 0 0 0 0 0 0 0 0 0 0 0 0 0 0 0 0 0 0 0 0 0 0 0 0 0 0 0 0 0 0 0 0 0 0 0 0 0 0 0 0 0 0 0 0 0 0 0 0 0
0 0 0 0 0 0 0 0 0 0 0 0 0 0 0 0 0 0 0 0 0 0 0 0 0 0 0 0 0 0 0 0 0 0 0 0 0 0 0 0 0 0 0 0 0 0 0 0 0 0 0 0 0 0
0 0 0 0 0 0 0 0 0 0 0 0 0 0 0 0 0 0 0 0 0 0 0 0 0 0 0 0 0 0 0 0 0 0 0 0 0 0 0 0 0 0 0 0 0 0 0 0 0 0 0 0 0 0
0 0 0 0 0 0 0 0 0 0 0 0 0 0 0 0 0 0 0 0 0 0 0 0 0 0 0 0 0 0 0 0 0 0 0 0 0 0 0 0 0 0 0 0 0 0 0 0 0 0 0 0 0 0
0 0 0 0 0 0 0 0 0 0 0 0 0 0 0 0 0 0 0 0 0 0 0 0 0 0 0 0 0 0 0 0 0 0 0 0 0 0 0 0 0 0 0 0 0 0 0 0 0 0 0 0 0 0
0 0 0 0 0 0 0 0 0 0 0 0 0 0 0 0 0 0 0 0 0 0 0 0 0 0 0 0 0 0 0 0 0 0 0 0 0 0 0 0 0 0 0 0 0 0 0 0 0 0 0 0 0 0
0 0 0 0 0 0 0 0 0 0 0 0 0 0 0 0 0 0 0 0 0 0 0 0 0 0 0 0 0 0 0 0 0 0 0 0 0 0 0 0 0 0 0 0 0 0 0 0 0 0 0 0 0 0
0 0 0 0 0 0 0 0 0 0 0 0 0 0 0 0 0 0 0 0 0 0 0 0 0 0 0 0 0 0 0 0 0 0 0 0 0 0 0 0 0 0 0 0 0 0 0 0 0 0 0 0 0 0
0 0 0 0 0 0 0 0 0 0 0 0 0 0 0 0 0 0 0 0 0 0 0 0 0 0 0 0 0 0 0 0 0 0 0 0 0 0 0 0 0 0 0 0 0 0 0 0 0 0 0 0 0 0
0 0 0 0 0 0 0 0 0 0 0 0 0 0 0 0 0 0 0 0 0 0 0 0 0 0 0 0 0 0 0 0 0 0 0 0 0 0 0 0 0 0 0 0 0 0 0 0 0 0 0 0 0 0
0 0 0 0 0 0 0 0 0 0 0 0 0 0 0 0 0 0 0 0 0 0 0 0 0 0 0 0 0 0 0 0 0 0 0 0 0 0 0 0 0 0 0 0 0 0 0 0 0 0 0 0 0 0
0 0 0 0 0 0 0 0 0 0 0 0 0 0 0 0 0 0 0 0 0 0 0 0 0 0 0 0 0 0 0 0 0 0 0 -0 0 0 -0 0 0 0 0 0 0 0 0 0 0 0 0 0 0 0
0 0 0 0 0 0 0 0 0 0 0 0 0 0 0 0 0 0 0 0 0 0 0 0 0 0 0 0 0 0 0 0 0 -0 -0 -0 0 -0 -0 0 0 0 0 0 0 0 0 0 0 0 0 0 0 0
0 0 0 0 0 0 0 0 0 0 0 0 0 0 0 0 0 0 0 0 0 0 -0 0 0 0 0 0 0 0 0 0 0 0 -0 0 0 0 -0 0 0 0 0 0 0 0 0 0 0 0 0 0 0 0
0 0 0 0 0 0 0 0 0 0 0 0 0 0 0 0 0 -0 -0 0 0 0 0 0 0 0 0 0 0 -0 0 0 0 0 0 0 0 0 0 0 0 0 0 0 0 0 0 0 0 0 0 0 0 0
0 0 0 -0 0 0 0 0 0 0 0 0 0 0 0 0 0 0 0 0 0 0 0 -0 0 -0 0 0 -0 -0 0 -0 -0 0 0 0 0 0 0 0 0 0 0 0 0 0 0 0 0 0 0 0 0 0
0 0 0 -0 0 0 0 0 0 0 0 0 0 0 0 0 0 0 0 0 0 0 -0 -0 -0 0 0 0 0 -0 -0 -0 -0 0 0 0 0 0 0 0 0 0 0 0 0 0 0 0 0 0 0 0 0 0
0 0 0 0 0 0 0 0 0 0 0 0 0 0 0 0 0 0 0 0 0 0 0 -0 -0 0 0 -0 0 -0 -0 -0 -0 0 0 0 0 0 0 0 0 0 0 0 0 0 0 0 0 0 0 0 0 0
0 0 0 0 0 0 0 0 0 0 0 -0 -0 0 0 0 0 0 0 0 0 0 0 0 0 0 -0 -0 -0 -0 -0 -0 -0 -0 0 0 0 0 0 0 0 0 0 0 0 0 0 0 0 0 0 0 0 0
0 0 0 0 0 0 0 0 -0 -0 -0 -0 -0 -0 0 0 0 0 0 0 0 0 0 0 0 0 0 0 0 0 -0 -0 -0 -0 0 0 0 0 0 0 0 0 0 0 0 0 0 0 0 0 0 0 0 0
0 0 0 0 -0 -0 -0 -0 0 0 -0 0 0 0 0 0 0 0 0 0 0 0 0 0 0 0 0 0 0 0 0 -0 -0 0 0 0 0 0 0 0 0 0 0 0 0 0 0 0 0 0 0 0 0 0
0 -0 -0 0 0 0 -0 0 -0 0 0 0 0 -0 0 0 0 0 0 0 0 0 0 0 0 0 0 0 0 0 0 0 -0 0 0 0 0 0 0 0 0 0 0 0 0 0 0 0 0 0 0 0 0 0
-0 -0 -0 0 0 0 0 0 0 0 -0 -0 -0 -0 0 0 -0 0 0 0 0 0 0 0 0 0 0 0 0 0 0 0 0 0 0 0 0 0 0 0 0 0 0 0 0 0 0 0 0 0 0 0 0 0
0 0 0 0 0 -0 0 -0 -0 -0 -0 -0 0 0 0 0 0 0 0 0 0 0 0 0 0 0 0 0 0 0 0 0 0 0 0 0 0 0 0 0 0 0 0 0 0 0 0 -0 0 0 0 0 0 0
0 0 0 0 -0 -0 0 0 0 0 0 0 0 0 0 -0 0 -0 0 0 0 0 0 0 0 0 0 0 0 0 0 0 0 0 0 0 0 0 0 0 0 0 0 0 0 0 -0 -0 0 0 0 0 0 0
0 -0 -0 0 -0 0 0 0 0 0 0 0 -0 0 0 0 0 0 0 -0 -0 -0 0 0 0 0 0 0 0 0 0 0 0 0 0 0 -0 0 0 0 0 0 0 0 0 0 -0 -0 0 0 0 0 0 0
0 -0 -0 0 0 0 0 0 0 0 0 0 0 0 0 0 0 0 0 0 0 0 0 0 0 0 0 0 0 0 0 0 0 0 0 -0 -0 0 0 0 0 0 0 0 0 0 0 0 0 0 0 0 0 0
0 0 0 0 0 0 0 0 0 0 0 0 0 0 0 0 0 0 0 0 0 -0 0 0 0 0 0 0 0 0 0 0 0 0 0 0 -0 0 0 0 0 0 0 0 0 0 0 0 0 0 0 0 0 0
-0 -0 0 0 -0 -0 -0 -0 -0 0 -0 0 0 0 0 0 0 0 0 0 0 0 0 0 0 0 0 0 0 0 0 0 0 0 0 0 0 0 0 0 0 0 0 0 0 0 0 0 0 0 0 0 0 0
-0 -0 -0 0 -0 -0 -0 -0 -0 -0 -0 0 0 0 0 0 0 0 0 0 0 0 0 0 0 0 0 0 0 0 0 0 0 0 0 0 0 0 0 0 0 0 0 0 0 0 0 0 0 0 0 0 0 0
Wind_Speed_500mb
21 20 18 16 16 16 16 17 17 17 16 16 17 17 18 18 21 18 7 11 6 11 40 43 34 18 15 5 2 19 7 5 6 5 7 7 7 10 8 11 14 16 13 8 5 6 14 29 10 14 13 24 17 16
22 19 19 17 17 15 15 16 16 16 16 17 17 17 17 17 18 20 16 18 16 20 29 22 28 34 37 32 31 9 7 15 1 4 2 5 4 3 7 9 4 4 14 11 17 14 15 51 21 20 22 22 21 22
21 18 17 17 18 20 20 20 19 19 18 18 18 17 18 16 14 16 19 16 20 18 52 55 50 48 27 26 36 20 9 7 4 11 3 5 5 7 4 9 1 5 12 6 8 6 19 39 30 23 27 21 23 17
20 19 17 16 16 15 14 16 18 20 21 21 20 18 18 17 14 15 16 12 11 10 12 17 27 37 28 28 37 37 61 35 27 30 7 5 5 10 7 7 8 9 3 7 5 10 9 15 38 35 31 29 23 19
19 19 18 17 16 15 14 14 15 17 18 19 22 21 20 19 15 16 17 18 16 14 9 30 64 43 34 35 45 36 55 55 41 8 9 7 9 3 6 2 6 7 10 6 11 20 14 16 31 44 40 33 25 14
24 22 19 18 16 16 16 16 15 16 19 16 17 21 20 18 12 7 7 11 15 27 11 7 26 52 43 31 30 36 52 52 43 16 11 13 23 10 8 10 21 32 39 29 10 18 29 21 41 37 32 28 20 6
24 22 22 19 16 16 16 15 16 16 18 19 15 17 18 17 12 12 9 10 9 10 8 13 15 15 23 33 36 38 52 41 36 29 16 27 28 11 6 14 23 20 30 24 21 8 23 47 38 35 24 26 16 12
22 23 21 20 19 18 16 16 15 15 17 20 16 14 14 16 16 21 23 26 16 7 11 8 10 18 13 16 23 37 39 32 20 22 13 13 19 21 11 22 63 62 56 57 57 35 33 39 34 34 34 29 24 24
19 22 24 23 19 16 19 17 15 14 15 16 11 7 7 10 10 6 9 23 28 19 8 7 4 7 16 14 17 24 24 7 18 17 24 19 8 11 17 44 62 62 62 58 49 45 36 51 46 44 38 39 33 25
17 17 19 23 20 17 18 16 15 13 9 11 4 4 6 7 9 4 6 4 9 14 18 11 9 7 19 21 11 18 10 9 7 12 28 15 21 55 66 41 41 51 62 50 44 37 41 55 53 49 48 44 35 25
16 15 16 19 21 20 15 14 15 13 7 5 5 5 6 9 14 8 10 14 15 8 12 15 35 18 31 6 4 9 8 5 6 9 12 8 9 46 80 84 86 68 39 55 54 42 37 61 59 52 54 43 31 20
22 18 18 15 19 20 15 15 18 19 11 11 5 9 6 8 10 9 6 5 5 8 10 13 21 36 15 18 10 4 6 6 11 8 8 8 20 55 58 66 71 79 69 47 50 43 28 62 59 55 56 43 28 14
23 21 22 20 19 20 17 17 22 21 18 12 7 5 9 9 12 10 12 6 7 11 15 17 10 12 14 15 7 6 8 9 25 5 9 9 11 34 57 60 57 58 62 65 62 51 38 65 59 63 50 32 19 10
22 22 23 25 23 22 19 21 24 27 13 7 7 7 12 10 10 10 10 11 25 23 26 23 23 16 14 8 9 9 8 6 7 8 10 6 19 41 40 31 50 54 52 52 58 58 57 66 65 48 32 25 17 8
21 21 24 26 26 24 22 25 30 36 13 10 8 9 10 22 22 22 26 34 40 47 49 40 32 24 9 7 8 7 9 11 11 9 8 21 37 43 41 32 32 30 41 50 61 65 75 70 57 43 31 24 17 9
21 21 27 22 26 27 27 27 33 39 12 10 15 9 26 15 27 32 34 38 36 21 20 15 7 6 10 6 7 15 7 9 5 7 36 53 43 37 36 35 25 18 39 53 70 81 74 61 52 42 39 29 14 7
21 24 16 18 22 27 32 38 35 17 16 12 16 34 37 37 31 44 37 38 32 35 3 1 8 13 3 4 7 6 3 11 41 57 64 64 53 31 24 32 29 28 52 63 81 77 65 55 50 47 38 21 21 13
27 24 28 24 29 36 37 36 16 16 18 23 16 19 27 34 41 51 42 32 20 22 6 7 2 3 8 8 5 5 40 60 55 58 75 67 59 43 30 29 35 54 67 78 73 68 63 58 50 36 25 34 23 16
23 20 20 29 43 38 17 20 19 11 25 19 33 42 47 51 58 62 62 45 39 25 9 8 8 6 8 16 18 32 42 42 57 79 78 66 32 37 40 41 58 79 79 75 70 64 54 43 33 26 28 29 22 22
19 22 25 39 39 27 9 10 15 13 13 15 28 44 53 53 54 51 54 54 52 33 14 9 10 19 25 45 39 29 36 47 46 60 77 57 26 35 48 65 80 76 69 61 54 48 39 32 24 31 31 24 25 18
19 19 29 38 38 29 7 7 12 13 12 15 19 22 36 41 43 49 54 54 53 46 20 29 40 48 47 48 48 47 44 41 34 42 66 58 20 51 67 71 64 59 55 51 49 41 32 30 34 30 27 25 18 11
21 30 30 45 10 12 15 18 14 9 11 19 29 25 34 29 40 47 43 40 44 51 50 52 60 55 47 49 49 38 35 41 43 35 47 29 21 47 65 67 47 50 52 46 38 34 33 34 34 32 32 28 20 10
37 30 16 15 9 9 14 20 16 13 10 10 15 8 14 13 30 45 16 36 51 53 48 60 68 61 58 54 47 45 40 41 38 41 33 20 24 38 54 45 48 47 40 33 31 35 32 25 34 40 32 21 13 8
21 18 10 12 18 10 10 14 17 11 13 11 6 8 8 13 16 19 10 34 53 47 46 49 56 60 53 47 45 46 43 43 43 33 23 15 16 28 53 52 42 33 35 31 38 38 35 47 39 28 19 13 11 6
10 12 9 13 13 10 10 9 16 11 10 10 8 8 7 8 4 7 8 17 50 63 70 64 54 56 48 51 43 32 29 32 36 32 27 32 37 50 45 11 29 33 28 40 49 47 41 36 33 27 18 15 10 6
7 16 19 13 11 12 10 6 6 7 8 9 10 10 4 3 7 11 7 30 49 42 41 52 56 46 36 30 25 27 27 29 26 25 12 22 61 63 47 29 40 40 47 42 42 36 37 34 30 28 25 17 8 9
7 11 23 24 18 8 8 14 17 7 10 10 6 9 5 9 10 7 13 7 9 19 22 28 23 26 25 23 25 22 25 31 25 24 24 15 36 40 40 59 52 45 36 31 28 23 23 27 28 26 23 17 4 2
18 10 9 18 21 26 17 10 7 6 6 5 8 8 4 2 4 10 8 6 1 1 3 8 12 22 25 23 28 30 32 45 29 13 23 25 29 54 45 38 25 28 34 29 25 21 18 19 28 28 21 9 4 15
13 16 16 22 20 6 6 6 7 9 12 8 2 3 4 8 22 20 11 3 4 11 8 23 34 28 30 36 39 44 55 27 22 52 58 69 67 58 35 28 40 31 23 19 11 11 14 17 20 16 11 8 16 21
18 22 8 12 9 7 9 9 12 24 18 11 4 2 7 11 52 34 23 9 12 4 12 18 29 24 29 40 34 41 40 36 23 47 57 57 57 42 40 31 24 19 13 14 17 23 24 22 20 19 12 18 21 17
7 17 11 5 1 3 4 0 8 15 19 20 14 12 19 18 27 49 38 28 28 29 23 25 39 37 44 49 53 47 31 21 17 20 47 50 40 34 32 26 19 13 11 10 13 20 30 30 23 18 25 27 21 19
17 16 17 6 6 14 8 1 4 5 11 24 29 17 14 19 21 35 62 29 32 50 43 47 36 21 15 17 18 29 40 52 45 42 51 42 40 31 22 18 12 9 11 10 7 20 23 22 25 28 28 26 21 14
11 23 20 14 7 8 14 9 4 5 14 16 19 24 18 10 10 30 35 43 39 49 47 40 36 28 44 36 34 33 35 37 38 37 34 28 25 23 18 14 12 9 14 17 21 18 20 20 23 26 23 21 15 11
Wind_Direction_500mb
245 244 246 250 252 258 262 270 274 278 283 292 298 294 287 282 277 263 215 243 221 247 265 268 271 289 313 355 14 329 12 341 54 97 136 217 187 236 196 199 182 166 157 200 133 197 275 173 145 161 201 171 186 183
244 243 237 239 248 256 260 262 268 275 280 281 286 290 292 286 293 263 242 213 238 256 260 262 245 253 261 269 275 292 281 304 310 99 225 107 253 319 189 257 132 146 182 184 172 211 225 183 204 210 199 186 192 170
233 235 238 241 249 255 261 265 265 268 270 275 279 283 289 288 284 283 275 294 266 291 282 272 268 257 267 259 256 245 242 234 155 16 292 228 222 128 190 243 228 306 175 170 69 266 200 204 213 209 188 187 160 167
230 238 242 246 254 262 267 273 273 270 267 266 269 275 280 282 266 257 281 305 286 272 269 282 245 258 251 243 234 253 250 244 272 292 284 228 189 192 211 210 162 227 44 152 246 261 173 217 222 201 172 160 166 157
233 234 236 241 249 257 268 281 286 283 278 273 267 269 274 281 282 248 261 275 265 234 286 300 292 276 277 270 248 266 235 234 246 229 211 232 228 172 245 106 229 201 203 159 232 217 219 228 184 179 170 175 174 176
236 238 239 243 246 256 266 273 280 292 294 279 262 257 262 274 286 246 241 283 261 235 272 288 282 284 275 260 253 243 230 220 224 195 215 233 225 210 196 219 248 258 257 250 248 270 251 218 178 179 183 179 172 190
233 235 234 242 248 254 265 272 272 281 290 297 271 259 257 256 254 212 204 176 208 213 244 279 273 271 311 274 234 227 209 212 228 231 221 240 264 273 191 224 225 210 215 253 272 220 158 166 183 186 198 175 175 170
231 231 231 234 245 254 259 267 268 274 277 300 304 266 254 247 256 252 232 221 256 287 244 260 267 303 313 265 207 225 216 217 220 218 214 215 245 225 237 230 246 247 249 251 255 248 252 229 188 189 184 181 182 172
237 234 235 237 244 250 257 266 259 263 270 304 302 260 221 229 237 266 242 224 235 221 248 251 279 273 319 340 228 187 204 200 227 201 218 212 219 234 220 220 236 243 233 236 242 253 261 201 193 187 187 189 189 180
239 245 239 234 232 237 257 262 242 242 272 301 170 148 214 219 184 181 207 181 216 225 231 237 240 265 320 350 349 352 212 220 231 232 218 223 233 235 239 244 246 247 243 235 223 231 211 193 187 187 197 197 197 191
241 248 240 231 218 235 255 242 220 212 243 179 147 233 244 206 181 199 222 197 198 246 236 243 229 233 256 244 267 311 303 288 273 237 173 238 242 228 237 237 241 248 252 234 232 231 224 207 189 189 180 180 180 181
237 242 223 218 226 230 246 222 203 196 186 181 233 277 222 208 203 200 220 226 204 240 226 217 232 211 227 203 157 224 240 273 247 260 185 245 240 246 244 243 246 241 239 235 223 217 224 210 200 196 182 176 177 193
233 233 224 223 222 228 234 215 207 193 211 214 249 239 206 219 218 210 202 193 199 211 234 217 226 186 195 200 145 140 270 251 320 287 257 226 244 241 240 241 242 242 242 228 221 231 224 198 191 187 174 175 178 176
234 235 227 221 221 222 219 209 194 189 189 209 227 262 210 200 228 200 201 195 214 227 257 270 245 215 196 160 181 196 187 284 256 273 265 266 252 274 254 255 247 238 234 229 223 211 197 184 174 174 174 173 177 178
233 230 227 223 221 217 212 200 192 188 197 213 226 238 224 231 242 254 257 274 268 273 277 287 270 233 209 226 202 199 196 198 229 239 263 261 265 263 260 259 221 231 227 217 204 190 177 171 167 164 168 170 173 193
224 236 229 219 215 205 195 187 190 193 203 219 231 249 275 282 272 277 277 286 294 320 302 276 185 168 241 236 170 211 236 234 283 319 308 324 310 278 256 243 233 249 215 207 190 177 169 166 166 165 162 170 187 201
214 223 230 203 191 192 185 188 192 201 204 225 236 227 244 277 274 284 297 301 332 329 220 277 213 203 228 232 246 245 336 327 319 317 313 317 314 306 262 238 231 219 187 179 174 164 161 162 161 162 164 165 170 188
209 223 210 166 181 178 189 194 216 214 229 238 250 239 242 258 270 280 287 311 297 311 249 196 189 250 231 214 197 23 319 317 313 315 323 312 304 284 249 217 204 186 172 162 159 157 157 161 164 165 160 165 179 205
205 206 196 182 184 178 191 201 219 236 234 239 250 253 258 264 265 264 271 278 286 278 231 187 229 213 234 223 233 288 288 329 321 320 326 321 286 248 211 198 180 165 160 158 157 157 159 163 164 165 177 182 197 198
211 195 189 192 191 189 238 225 200 241 240 233 254 260 255 255 269 273 270 267 263 249 195 210 211 239 255 281 289 285 314 312 322 311 319 339 219 194 182 170 159 156 153 151 152 154 157 159 172 176 177 199 201 199
199 182 186 181 195 208 269 229 235 242 250 234 266 309 268 259 258 255 251 254 248 233 223 233 252 265 269 279 283 292 292 299 316 302 303 307 234 183 166 157 156 154 156 159 158 160 169 176 175 176 184 189 185 189
206 180 171 191 192 201 241 230 230 273 258 259 278 267 258 249 243 250 254 244 236 235 235 241 251 255 260 266 274 279 289 283 293 293 297 292 192 166 158 153 152 170 166 168 171 173 173 181 185 195 192 193 199 230
163 172 167 181 212 236 251 213 221 221 224 239 238 218 257 254 240 243 230 239 240 242 241 247 257 262 266 268 266 272 274 278 291 279 280 237 142 145 160 166 184 174 170 176 186 186 191 187 185 184 183 190 209 232
166 172 174 196 210 256 247 218 212 238 229 218 228 232 252 234 258 209 234 232 240 239 240 250 253 250 248 239 248 264 269 265 263 271 270 245 212 199 170 177 178 187 179 194 207 194 178 164 166 172 174 197 201 251
161 201 189 226 225 230 240 227 205 219 234 215 228 247 274 246 252 244 230 243 242 242 244 247 244 231 242 260 266 258 251 257 249 239 237 206 190 171 191 204 190 184 187 173 165 162 162 166 177 176 185 207 219 305
206 210 199 217 218 207 220 252 232 246 257 220 224 242 246 264 244 249 249 251 239 238 235 224 230 241 248 244 241 241 250 246 207 176 181 197 184 172 187 190 160 157 160 162 157 164 165 175 184 195 200 197 214 317
245 241 223 233 254 245 336 302 287 255 233 212 202 175 207 224 235 275 324 320 186 203 213 211 228 248 245 218 213 208 196 169 164 150 135 127 168 180 191 153 144 149 158 163 165 177 185 194 201 199 193 188 229 90
229 262 238 259 272 272 278 256 247 252 270 313 175 201 289 310 275 303 284 25 85 172 221 273 195 180 190 199 194 169 153 132 110 113 159 155 162 164 154 146 149 184 180 177 176 175 180 204 204 201 200 197 123 146
234 238 255 273 277 253 242 235 256 255 300 315 132 217 248 260 313 308 23 175 307 298 176 151 155 162 168 171 160 163 156 161 137 143 133 129 127 125 122 149 160 155 154 159 172 190 190 196 196 194 170 137 148 157
244 247 246 284 254 218 231 236 298 334 347 349 343 257 287 32 34 48 54 125 197 258 187 165 157 176 154 154 161 151 162 147 109 149 150 137 131 140 156 151 140 132 130 150 163 174 186 192 182 170 174 168 172 180
233 198 227 247 214 199 230 30 31 31 44 43 56 47 24 14 27 44 47 51 102 92 133 157 141 138 133 138 130 130 144 161 139 134 159 150 141 143 139 122 107 100 112 143 155 176 184 182 188 194 170 168 178 174
203 205 178 161 202 189 196 133 84 40 35 42 31 29 21 29 29 24 33 74 53 65 108 117 119 127 125 138 143 126 131 137 131 125 146 151 146 141 140 138 131 122 118 121 112 145 144 145 146 151 164 179 183 181
165 147 139 150 162 188 204 192 146 75 31 23 27 24 32 43 28 6 42 55 62 46 55 67 97 115 125 128 118 108 117 126 133 140 144 147 149 151 155 155 157 156 134 105 117 130 134 141 155 159 177 185 186 186
Wind_Speed_850mb
21 20 18 16 16 16 16 17 17 17 16 16 17 17 18 18 21 18 7 11 6 11 40 43 34 18 15 5 2 19 7 5 6 5 7 7 7 10 8 11 14 16 13 8 5 6 14 29 10 14 13 24 17 16
22 19 19 17 17 15 15 16 16 16 16 17 17 17 17 17 18 20 16 18 16 20 29 22 28 34 37 32 31 9 7 15 1 4 2 5 4 3 7 9 4 4 14 11 17 14 15 51 21 20 22 22 21 22
21 18 17 17 18 20 20 20 19 19 18 18 18 17 18 16 14 16 19 16 20 18 52 55 50 48 27 26 36 20 9 7 4 11 3 5 5 7 4 9 1 5 12 6 8 6 19 39 30 23 27 21 23 17
20 19 17 16 16 15 14 16 18 20 21 21 20 18 18 17 14 15 16 12 11 10 12 17 27 37 28 28 37 37 61 35 27 30 7 5 5 10 7 7 8 9 3 7 5 10 9 15 38 35 31 29 23 19
19 19 18 17 16 15 14 14 15 17 18 19 22 21 20 19 15 16 17 18 16 14 9 30 64 43 34 35 45 36 55 55 41 8 9 7 9 3 6 2 6 7 10 6 11 20 14 16 31 44 40 33 25 14
24 22 19 18 16 16 16 16 15 16 19 16 17 21 20 18 12 7 7 11 15 27 11 7 26 52 43 31 30 36 52 52 43 16 11 13 23 10 8 10 21 32 39 29 10 18 29 21 41 37 32 28 20 6
24 22 22 19 16 16 16 15 16 16 18 19 15 17 18 17 12 12 9 10 9 10 8 13 15 15 23 33 36 38 52 41 36 29 16 27 28 11 6 14 23 20 30 24 21 8 23 47 38 35 24 26 16 12
22 23 21 20 19 18 16 16 15 15 17 20 16 14 14 16 16 21 23 26 16 7 11 8 10 18 13 16 23 37 39 32 20 22 13 13 19 21 11 22 63 62 56 57 57 35 33 39 34 34 34 29 24 24
19 22 24 23 19 16 19 17 15 14 15 16 11 7 7 10 10 6 9 23 28 19 8 7 4 7 16 14 17 24 24 7 18 17 24 19 8 11 17 44 62 62 62 58 49 45 36 51 46 44 38 39 33 25
17 17 19 23 20 17 18 16 15 13 9 11 4 4 6 7 9 4 6 4 9 14 18 11 9 7 19 21 11 18 10 9 7 12 28 15 21 55 66 41 41 51 62 50 44 37 41 55 53 49 48 44 35 25
16 15 16 19 21 20 15 14 15 13 7 5 5 5 6 9 14 8 10 14 15 8 12 15 35 18 31 6 4 9 8 5 6 9 12 8 9 46 80 84 86 68 39 55 54 42 37 61 59 52 54 43 31 20
22 18 18 15 19 20 15 15 18 19 11 11 5 9 6 8 10 9 6 5 5 8 10 13 21 36 15 18 10 4 6 6 11 8 8 8 20 55 58 66 71 79 69 47 50 43 28 62 59 55 56 43 28 14
23 21 22 20 19 20 17 17 22 21 18 12 7 5 9 9 12 10 12 6 7 11 15 17 10 12 14 15 7 6 8 9 25 5 9 9 11 34 57 60 57 58 62 65 62 51 38 65 59 63 50 32 19 10
22 22 23 25 23 22 19 21 24 27 13 7 7 7 12 10 10 10 10 11 25 23 26 23 23 16 14 8 9 9 8 6 7 8 10 6 19 41 40 31 50 54 52 52 58 58 57 66 65 48 32 25 17 8
21 21 24 26 26 24 22 25 30 36 13 10 8 9 10 22 22 22 26 34 40 47 49 40 32 24 9 7 8 7 9 11 11 9 8 21 37 43 41 32 32 30 41 50 61 65 75 70 57 43 31 24 17 9
21 21 27 22 26 27 27 27 33 39 12 10 15 9 26 15 27 32 34 38 36 21 20 15 7 6 10 6 7 15 7 9 5 7 36 53 43 37 36 35 25 18 39 53 70 81 74 61 52 42 39 29 14 7
21 24 16 18 22 27 32 38 35 17 16 12 16 34 37 37 31 44 37 38 32 35 3 1 8 13 3 4 7 6 3 11 41 57 64 64 53 31 24 32 29 28 52 63 81 77 65 55 50 47 38 21 21 13
27 24 28 24 29 36 37 36 16 16 18 23 16 19 27 34 41 51 42 32 20 22 6 7 2 3 8 8 5 5 40 60 55 58 75 67 59 43 30 29 35 54 67 78 73 68 63 58 50 36 25 34 23 16
23 20 20 29 43 38 17 20 19 11 25 19 33 42 47 51 58 62 62 45 39 25 9 8 8 6 8 16 18 32 42 42 57 79 78 66 32 37 40 41 58 79 79 75 70 64 54 43 33 26 28 29 22 22
19 22 25 39 39 27 9 10 15 13 13 15 28 44 53 53 54 51 54 54 52 33 14 9 10 19 25 45 39 29 36 47 46 60 77 57 26 35 48 65 80 76 69 61 54 48 39 32 24 31 31 24 25 18
19 19 29 38 38 29 7 7 12 13 12 15 19 22 36 41 43 49 54 54 53 46 20 29 40 48 47 48 48 47 44 41 34 42 66 58 20 51 67 71 64 59 55 51 49 41 32 30 34 30 27 25 18 11
21 30 30 45 10 12 15 18 14 9 11 19 29 25 34 29 40 47 43 40 44 51 50 52 60 55 47 49 49 38 35 41 43 35 47 29 21 47 65 67 47 50 52 46 38 34 33 34 34 32 32 28 20 10
37 30 16 15 9 9 14 20 16 13 10 10 15 8 14 13 30 45 16 36 51 53 48 60 68 61 58 54 47 45 40 41 38 41 33 20 24 38 54 45 48 47 40 33 31 35 32 25 34 40 32 21 13 8
21 18 10 12 18 10 10 14 17 11 13 11 6 8 8 13 16 19 10 34 53 47 46 49 56 60 53 47 45 46 43 43 43 33 23 15 16 28 53 52 42 33 35 31 38 38 35 47 39 28 19 13 11 6
10 12 9 13 13 10 10 9 16 11 10 10 8 8 7 8 4 7 8 17 50 63 70 64 54 56 48 51 43 32 29 32 36 32 27 32 37 50 45 11 29 33 28 40 49 47 41 36 33 27 18 15 10 6
7 16 19 13 11 12 10 6 6 7 8 9 10 10 4 3 7 11 7 30 49 42 41 52 56 46 36 30 25 27 27 29 26 25 12 22 61 63 47 29 40 40 47 42 42 36 37 34 30 28 25 17 8 9
7 11 23 24 18 8 8 14 17 7 10 10 6 9 5 9 10 7 13 7 9 19 22 28 23 26 25 23 25 22 25 31 25 24 24 15 36 40 40 59 52 45 36 31 28 23 23 27 28 26 23 17 4 2
18 10 9 18 21 26 17 10 7 6 6 5 8 8 4 2 4 10 8 6 1 1 3 8 12 22 25 23 28 30 32 45 29 13 23 25 29 54 45 38 25 28 34 29 25 21 18 19 28 28 21 9 4 15
13 16 16 22 20 6 6 6 7 9 12 8 2 3 4 8 22 20 11 3 4 11 8 23 34 28 30 36 39 44 55 27 22 52 58 69 67 58 35 28 40 31 23 19 11 11 14 17 20 16 11 8 16 21
18 22 8 12 9 7 9 9 12 24 18 11 4 2 7 11 52 34 23 9 12 4 12 18 29 24 29 40 34 41 40 36 23 47 57 57 57 42 40 31 24 19 13 14 17 23 24 22 20 19 12 18 21 17
7 17 11 5 1 3 4 0 8 15 19 20 14 12 19 18 27 49 38 28 28 29 23 25 39 37 44 49 53 47 31 21 17 20 47 50 40 34 32 26 19 13 11 10 13 20 30 30 23 18 25 27 21 19
17 16 17 6 6 14 8 1 4 5 11 24 29 17 14 19 21 35 62 29 32 50 43 47 36 21 15 17 18 29 40 52 45 42 51 42 40 31 22 18 12 9 11 10 7 20 23 22 25 28 28 26 21 14
11 23 20 14 7 8 14 9 4 5 14 16 19 24 18 10 10 30 35 43 39 49 47 40 36 28 44 36 34 33 35 37 38 37 34 28 25 23 18 14 12 9 14 17 21 18 20 20 23 26 23 21 15 11
Wind_Direction_850mb
245 244 246 250 252 258 262 270 274 278 283 292 298 294 287 282 277 263 215 243 221 247 265 268 271 289 313 355 14 329 12 341 54 97 136 217 187 236 196 199 182 166 157 200 133 197 275 173 145 161 201 171 186 183
244 243 237 239 248 256 260 262 268 275 280 281 286 290 292 286 293 263 242 213 238 256 260 262 245 253 261 269 275 292 281 304 310 99 225 107 253 319 189 257 132 146 182 184 172 211 225 183 204 210 199 186 192 170
233 235 238 241 249 255 261 265 265 268 270 275 279 283 289 288 284 283 275 294 266 291 282 272 268 257 267 259 256 245 242 234 155 16 292 228 222 128 190 243 228 306 175 170 69 266 200 204 213 209 188 187 160 167
230 238 242 246 254 262 267 273 273 270 267 266 269 275 280 282 266 257 281 305 286 272 269 282 245 258 251 243 234 253 250 244 272 292 284 228 189 192 211 210 162 227 44 152 246 261 173 217 222 201 172 160 166 157
233 234 236 241 249 257 268 281 286 283 278 273 267 269 274 281 282 248 261 275 265 234 286 300 292 276 277 270 248 266 235 234 246 229 211 232 228 172 245 106 229 201 203 159 232 217 219 228 184 179 170 175 174 176
236 238 239 243 246 256 266 273 280 292 294 279 262 257 262 274 286 246 241 283 261 235 272 288 282 284 275 260 253 243 230 220 224 195 215 233 225 210 196 219 248 258 257 250 248 270 251 218 178 179 183 179 172 190
233 235 234 242 248 254 265 272 272 281 290 297 271 259 257 256 254 212 204 176 208 213 244 279 273 271 311 274 234 227 209 212 228 231 221 240 264 273 191 224 225 210 215 253 272 220 158 166 183 186 198 175 175 170
231 231 231 234 245 254 259 267 268 274 277 300 304 266 254 247 256 252 232 221 256 287 244 260 267 303 313 265 207 225 216 217 220 218 214 215 245 225 237 230 246 247 249 251 255 248 252 229 188 189 184 181 182 172
237 234 235 237 244 250 257 266 259 263 270 304 302 260 221 229 237 266 242 224 235 221 248 251 279 273 319 340 228 187 204 200 227 201 218 212 219 234 220 220 236 243 233 236 242 253 261 201 193 187 187 189 189 180
239 245 239 234 232 237 257 262 242 242 272 301 170 148 214 219 184 181 207 181 216 225 231 237 240 265 320 350 349 352 212 220 231 232 218 223 233 235 239 244 246 247 243 235 223 231 211 193 187 187 197 197 197 191
241 248 240 231 218 235 255 242 220 212 243 179 147 233 244 206 181 199 222 197 198 246 236 243 229 233 256 244 267 311 303 288 273 237 173 238 242 228 237 237 241 248 252 234 232 231 224 207 189 189 180 180 180 181
237 242 223 218 226 230 246 222 203 196 186 181 233 277 222 208 203 200 220 226 204 240 226 217 232 211 227 203 157 224 240 273 247 260 185 245 240 246 244 243 246 241 239 235 223 217 224 210 200 196 182 176 177 193
233 233 224 223 222 228 234 215 207 193 211 214 249 239 206 219 218 210 202 193 199 211 234 217 226 186 195 200 145 140 270 251 320 287 257 226 244 241 240 241 242 242 242 228 221 231 224 198 191 187 174 175 178 176
234 235 227 221 221 222 219 209 194 189 189 209 227 262 210 200 228 200 201 195 214 227 257 270 245 215 196 160 181 196 187 284 256 273 265 266 252 274 254 255 247 238 234 229 223 211 197 184 174 174 174 173 177 178
233 230 227 223 221 217 212 200 192 188 197 213 226 238 224 231 242 254 257 274 268 273 277 287 270 233 209 226 202 199 196 198 229 239 263 261 265 263 260 259 221 231 227 217 204 190 177 171 167 164 168 170 173 193
224 236 229 219 215 205 195 187 190 193 203 219 231 249 275 282 272 277 277 286 294 320 302 276 185 168 241 236 170 211 236 234 283 319 308 324 310 278 256 243 233 249 215 207 190 177 169 166 166 165 162 170 187 201
214 223 230 203 191 192 185 188 192 201 204 225 236 227 244 277 274 284 297 301 332 329 220 277 213 203 228 232 246 245 336 327 319 317 313 317 314 306 262 238 231 219 187 179 174 164 161 162 161 162 164 165 170 188
209 223 210 166 181 178 189 194 216 214 229 238 250 239 242 258 270 280 287 311 297 311 249 196 189 250 231 214 197 23 319 317 313 315 323 312 304 284 249 217 204 186 172 162 159 157 157 161 164 165 160 165 179 205
205 206 196 182 184 178 191 201 219 236 234 239 250 253 258 264 265 264 271 278 286 278 231 187 229 213 234 223 233 288 288 329 321 320 326 321 286 248 211 198 180 165 160 158 157 157 159 163 164 165 177 182 197 198
211 195 189 192 191 189 238 225 200 241 240 233 254 260 255 255 269 273 270 267 263 249 195 210 211 239 255 281 289 285 314 312 322 311 319 339 219 194 182 170 159 156 153 151 152 154 157 159 172 176 177 199 201 199
199 182 186 181 195 208 269 229 235 242 250 234 266 309 268 259 258 255 251 254 248 233 223 233 252 265 269 279 283 292 292 299 316 302 303 307 234 183 166 157 156 154 156 159 158 160 169 176 175 176 184 189 185 189
206 180 171 191 192 201 241 230 230 273 258 259 278 267 258 249 243 250 254 244 236 235 235 241 251 255 260 266 274 279 289 283 293 293 297 292 192 166 158 153 152 170 166 168 171 173 173 181 185 195 192 193 199 230
163 172 167 181 212 236 251 213 221 221 224 239 238 218 257 254 240 243 230 239 240 242 241 247 257 262 266 268 266 272 274 278 291 279 280 237 142 145 160 166 184 174 170 176 186 186 191 187 185 184 183 190 209 232
166 172 174 196 210 256 247 218 212 238 229 218 228 232 252 234 258 209 234 232 240 239 240 250 253 250 248 239 248 264 269 265 263 271 270 245 212 199 170 177 178 187 179 194 207 194 178 164 166 172 174 197 201 251
161 201 189 226 225 230 240 227 205 219 234 215 228 247 274 246 252 244 230 243 242 242 244 247 244 231 242 260 266 258 251 257 249 239 237 206 190 171 191 204 190 184 187 173 165 162 162 166 177 176 185 207 219 305
206 210 199 217 218 207 220 252 232 246 257 220 224 242 246 264 244 249 249 251 239 238 235 224 230 241 248 244 241 241 250 246 207 176 181 197 184 172 187 190 160 157 160 162 157 164 165 175 184 195 200 197 214 317
245 241 223 233 254 245 336 302 287 255 233 212 202 175 207 224 235 275 324 320 186 203 213 211 228 248 245 218 213 208 196 169 164 150 135 127 168 180 191 153 144 149 158 163 165 177 185 194 201 199 193 188 229 90
229 262 238 259 272 272 278 256 247 252 270 313 175 201 289 310 275 303 284 25 85 172 221 273 195 180 190 199 194 169 153 132 110 113 159 155 162 164 154 146 149 184 180 177 176 175 180 204 204 201 200 197 123 146
234 238 255 273 277 253 242 235 256 255 300 315 132 217 248 260 313 308 23 175 307 298 176 151 155 162 168 171 160 163 156 161 137 143 133 129 127 125 122 149 160 155 154 159 172 190 190 196 196 194 170 137 148 157
244 247 246 284 254 218 231 236 298 334 347 349 343 257 287 32 34 48 54 125 197 258 187 165 157 176 154 154 161 151 162 147 109 149 150 137 131 140 156 151 140 132 130 150 163 174 186 192 182 170 174 168 172 180
233 198 227 247 214 199 230 30 31 31 44 43 56 47 24 14 27 44 47 51 102 92 133 157 141 138 133 138 130 130 144 161 139 134 159 150 141 143 139 122 107 100 112 143 155 176 184 182 188 194 170 168 178 174
203 205 178 161 202 189 196 133 84 40 35 42 31 29 21 29 29 24 33 74 53 65 108 117 119 127 125 138 143 126 131 137 131 125 146 151 146 141 140 138 131 122 118 121 112 145 144 145 146 151 164 179 183 181
165 147 139 150 162 188 204 192 146 75 31 23 27 24 32 43 28 6 42 55 62 46 55 67 97 115 125 128 118 108 117 126 133 140 144 147 149 151 155 155 157 156 134 105 117 130 134 141 155 159 177 185 186 186